Weather History for Whiting Fld NAS, FL

Change the Weather History Date:

Wednesday, August 7, 2013

  Actual Average Record
Temperature  
Mean Temperature 82 °F -  
Max Temperature 93 °F 87 °F 99 °F (2010)
Min Temperature 72 °F 70 °F 46 °F (2001)
Cooling Degree Days 18    
Growing Degree Days 32 (Base 50)    
Moisture  
Dew Point 72 °F    
Average Humidity 75    
Maximum Humidity 91    
Minimum Humidity 49    
Precipitation  
Precipitation 0.30 in - - ()
Sea Level Pressure  
Sea Level Pressure 29.92 in    
Wind  
Wind Speed 5 mph (ESE)    
Max Wind Speed 17 mph    
Max Gust Speed 30 mph    
Visibility 8 miles    
Events Rain , Thunderstorm    
Averages and records for this station are not official NWS values.
T = Trace of Precipitation, MM = Missing Value Source: NWS Daily Summary

Daily Weather History Graph

Daily Weather History Graph

Search for Another Location

Airport:

Trip Planner

Search our weather history database for the weather conditions in past years. The results will help you decide how hot, cold, wet, or windy it might be!

Date:

Astronomy

Aug. 07, 2013 Rise Set
Actual Time 6:09 AM CDT 7:37 PM CDT
Civil Twilight 5:43 AM CDT 8:03 PM CDT
Nautical Twilight 5:13 AM CDT 8:34 PM CDT
Astronomical Twilight 4:40 AM CDT 9:06 PM CDT
Moon 6:50 AM CDT (8/7) 7:54 PM CDT (8/7)
Length of Visible Light 14h 19m
Length of Day
13h 27m
New Moon, 1% of the Moon is Illuminated
Aug 7
New Moon
Aug 14
First Quarter
Aug 20
Full
Aug 28
Last Quarter
Sep 5
New

Hourly Weather History & Observations

Time (CDT) Temp. Heat Index Dew Point Humidity Pressure Visibility Wind Dir Wind Speed Gust Speed Precip Events Conditions
12:56 AM 73.9 °F - 70.0 °F 87% 29.91 in 10.0 mi WNW 6.9 mph - N/A   Overcast
1:56 AM 73.0 °F - 69.1 °F 87% 29.89 in 10.0 mi NNE 4.6 mph - N/A   Clear
2:56 AM 73.0 °F - 69.1 °F 87% 29.90 in 10.0 mi NNE 3.5 mph - N/A   Clear
3:56 AM 73.0 °F - 69.1 °F 87% 29.89 in 10.0 mi Calm Calm - N/A   Clear
4:56 AM 72.0 °F - 69.1 °F 91% 29.91 in 10.0 mi Calm Calm - N/A   Clear
5:56 AM 72.0 °F - 69.1 °F 91% 29.92 in 9.0 mi Calm Calm - N/A   Scattered Clouds
6:56 AM 73.0 °F - 69.1 °F 87% 29.93 in 10.0 mi ENE 3.5 mph - N/A   Scattered Clouds
7:56 AM 75.9 °F - 70.0 °F 82% 29.95 in 10.0 mi NE 4.6 mph - N/A   Scattered Clouds
8:56 AM 82.0 °F 86.3 °F 71.1 °F 69% 29.94 in 10.0 mi ENE 4.6 mph - N/A   Scattered Clouds
9:56 AM 84.9 °F 90.7 °F 72.0 °F 65% 29.95 in 10.0 mi ENE 6.9 mph - N/A   Mostly Cloudy
10:56 AM 88.0 °F 93.8 °F 71.1 °F 57% 29.95 in 10.0 mi ENE 5.8 mph - N/A   Mostly Cloudy
11:56 AM 89.1 °F 95.0 °F 71.1 °F 55% 29.95 in 10.0 mi East 4.6 mph - N/A   Mostly Cloudy
12:56 PM 91.9 °F 98.4 °F 71.1 °F 50% 29.94 in 10.0 mi Variable 5.8 mph - N/A   Mostly Cloudy
1:56 PM 91.9 °F 98.4 °F 71.1 °F 50% 29.91 in 10.0 mi ESE 3.5 mph - N/A   Mostly Cloudy
2:56 PM 93.0 °F 100.1 °F 71.1 °F 49% 29.90 in 10.0 mi Variable 3.5 mph - N/A   Mostly Cloudy
3:56 PM 91.9 °F 98.4 °F 71.1 °F 50% 29.88 in 10.0 mi East 4.6 mph - N/A   Scattered Clouds
4:56 PM 91.0 °F 101.6 °F 75.0 °F 59% 29.88 in 10.0 mi SSW 6.9 mph - N/A   Mostly Cloudy
5:41 PM 89.6 °F 98.2 °F 73.4 °F 59% 29.92 in 10.0 mi SSE 16.1 mph 25.3 mph N/A Thunderstorm Thunderstorm
5:54 PM 80.6 °F 84.6 °F 71.6 °F 74% 29.92 in 4.0 mi East 17.3 mph 29.9 mph 0.01 in Rain , Thunderstorm Light Thunderstorms and Rain
5:56 PM 80.1 °F 83.2 °F 70.0 °F 71% 29.88 in 2.5 mi ESE 11.5 mph 29.9 mph 0.08 in Rain , Thunderstorm Light Thunderstorms and Rain
6:04 PM 77.0 °F - 71.6 °F 83% 29.93 in 1.0 mi SSW 12.7 mph - 0.22 in Rain , Thunderstorm Heavy Thunderstorms and Rain
6:10 PM 78.8 °F - 71.6 °F 78% 29.92 in 3.0 mi SSW 12.7 mph - 0.22 in Rain , Thunderstorm Light Thunderstorms and Rain
6:24 PM 78.8 °F - 73.4 °F 83% 29.92 in 10.0 mi SE 4.6 mph - 0.22 in Thunderstorm Thunderstorm
6:37 PM 80.6 °F 85.4 °F 73.4 °F 79% 29.92 in 10.0 mi South 5.8 mph - 0.22 in   Mostly Cloudy
6:56 PM 80.1 °F 85.1 °F 75.0 °F 85% 29.88 in 10.0 mi Calm Calm - 0.22 in   Mostly Cloudy
7:56 PM 77.0 °F - 73.0 °F 88% 29.91 in 10.0 mi Calm Calm - N/A   Scattered Clouds
8:56 PM 78.1 °F - 73.0 °F 84% 29.92 in 9.0 mi SE 3.5 mph - N/A   Scattered Clouds
9:56 PM 78.1 °F - 73.9 °F 87% 29.93 in 7.0 mi SE 3.5 mph - N/A   Scattered Clouds
10:56 PM 77.0 °F - 73.9 °F 90% 29.93 in 5.0 mi Calm Calm - N/A   Scattered Clouds
11:56 PM 77.0 °F - 73.9 °F 90% 29.93 in 5.0 mi Calm Calm - N/A   Scattered Clouds